Date String (YYYY-MM-DD hh:mm:ss) UTC,Instrument flags,absolute air pressure of the measurement (hPa),sample flow rate (lpm),inlet stack bypass flow (lpm),air temperature of the measurement (°C),ambient temperature measured by the external sensor (°C),aerosol sample conditioner tube jacket temperature (°C),OPC LED temperature (°C),internal box temperature (°C),relative humidity of the measurement (%),span deviation,mass concentration of particles derived from Lorenz-Mie calculation of OPC scattering (μg/m³),mass concentration of particles derived from Lorenz-Mie calculation of OPC scattering (μg/m³),mass concentration of particles derived from Lorenz-Mie calculation of OPC scattering (μg/m³)
DateTimeUTC,F1_M11,P_M11,Q1_M11,Q2_M11,T1_M11,T2_M11,T3_M11,T4_M11,T5_M11,U1_M11,ZSPAN_M11,X0_M11,X2_M11,X1_M11
2024-05-02 04:00:00,SystemResetWarning,0824.0,5.00,000.00,025.6,024.9,000.0,033.9,027.4,019.6,0000.0,0004.35,0002.22,0001.13
2024-05-02 04:01:00,SystemResetWarning,0824.0,5.00,000.00,025.6,024.9,000.0,033.9,027.4,019.4,0000.0,0004.12,0002.13,0001.13
2024-05-02 04:02:00,SystemResetWarning,0824.0,5.00,000.00,025.6,024.9,000.0,033.9,027.3,019.0,0000.0,0004.09,0002.13,0001.18
2024-05-02 04:03:00,SystemResetWarning,0824.0,5.00,000.00,025.6,024.9,000.0,033.9,027.3,019.3,0000.0,0004.25,0002.22,0001.24
2024-05-02 04:04:00,SystemResetWarning,0823.9,5.00,000.00,025.6,024.9,000.0,033.9,027.3,019.5,0000.0,0004.47,0002.30,0001.28
2024-05-02 04:05:00,SystemResetWarning,0824.0,5.00,000.00,025.6,024.9,000.0,033.9,027.4,019.4,0000.0,0004.86,0002.44,0001.33
2024-05-02 04:06:00,SystemResetWarning,0823.9,5.01,000.00,025.6,024.9,000.0,033.9,027.4,019.4,0000.0,0005.16,0002.61,0001.40
2024-05-02 04:07:00,SystemResetWarning,0823.8,5.00,000.00,025.6,024.9,000.0,033.9,027.4,019.0,0000.0,0006.05,0002.72,0001.46
2024-05-02 04:08:00,SystemResetWarning,0823.8,5.01,000.00,025.6,025.0,000.0,033.9,027.4,018.9,0000.0,0007.33,0002.79,0001.50
2024-05-02 04:09:00,SystemResetWarning,0823.8,4.98,000.00,025.7,025.0,000.0,034.0,027.4,018.5,0000.0,0007.38,0002.84,0001.57
2024-05-02 04:10:00,SystemResetWarning,0823.8,5.00,000.00,025.7,025.0,000.0,034.0,027.4,018.3,0000.0,0007.61,0002.94,0001.62
2024-05-02 04:11:00,SystemResetWarning,0823.8,5.01,000.00,025.7,025.0,000.0,034.0,027.4,018.1,0000.0,0007.62,0002.96,0001.64
2024-05-02 04:12:00,SystemResetWarning,0823.8,5.01,000.00,025.7,025.0,000.0,034.0,027.4,017.9,0000.0,0007.87,0003.04,0001.67
2024-05-02 04:13:00,SystemResetWarning,0824.0,5.00,000.00,025.7,025.0,000.0,034.0,027.4,017.9,0000.0,0008.26,0003.13,0001.68
2024-05-02 04:14:00,SystemResetWarning,0824.0,5.00,000.00,025.7,025.0,000.0,034.0,027.5,017.9,0000.0,0009.08,0003.16,0001.67
2024-05-02 04:15:00,SystemResetWarning,0824.0,5.01,000.00,025.7,025.0,000.0,034.0,027.4,017.9,0000.0,0008.99,0003.14,0001.67
2024-05-02 04:16:00,SystemResetWarning,0824.0,5.00,000.00,025.7,025.0,000.0,034.0,027.4,018.0,0000.0,0008.97,0003.13,0001.68
2024-05-02 04:17:00,SystemResetWarning,0824.0,5.00,000.00,025.7,025.0,000.0,034.0,027.5,018.1,0000.0,0009.16,0003.10,0001.68
2024-05-02 04:18:00,SystemResetWarning,0824.0,5.00,000.00,025.7,025.0,000.0,034.0,027.5,018.0,0000.0,0008.88,0003.07,0001.67
2024-05-02 04:19:00,SystemResetWarning,0824.0,5.00,000.00,025.7,025.0,000.0,034.0,027.5,018.2,0000.0,0008.79,0003.12,0001.70
2024-05-02 04:20:00,SystemResetWarning,0824.0,5.00,000.00,025.7,025.1,000.0,034.0,027.5,018.1,0000.0,0009.13,0003.12,0001.69
2024-05-02 04:21:00,SystemResetWarning,0824.0,5.00,000.00,025.7,025.1,000.0,034.0,027.5,018.0,0000.0,0009.40,0003.10,0001.68
2024-05-02 04:22:00,SystemResetWarning,0824.0,5.00,000.00,025.8,025.1,000.0,034.0,027.5,017.9,0000.0,0009.43,0003.10,0001.68
2024-05-02 04:23:00,SystemResetWarning,0824.0,5.00,000.00,025.8,025.1,000.0,034.1,027.5,017.9,0000.0,0009.29,0003.09,0001.67
2024-05-02 04:24:00,SystemResetWarning,0824.0,5.00,000.00,025.8,025.1,000.0,034.1,027.5,017.6,0000.0,0008.97,0002.97,0001.65
2024-05-02 04:25:00,SystemResetWarning,0824.0,5.00,000.00,025.8,025.1,000.0,034.1,027.5,017.5,0000.0,0008.03,0002.91,0001.65
2024-05-02 04:26:00,SystemResetWarning,0824.2,4.99,000.00,025.8,025.1,000.0,034.1,027.6,017.8,0000.0,0008.04,0002.94,0001.66
2024-05-02 04:27:00,SystemResetWarning,0824.1,4.99,000.00,025.8,025.2,000.0,034.1,027.6,017.6,0000.0,0008.11,0002.91,0001.65
2024-05-02 04:28:00,SystemResetWarning,0824.2,5.00,000.00,025.8,025.2,000.0,034.1,027.6,017.7,0000.0,0008.58,0002.88,0001.63
2024-05-02 04:29:00,SystemResetWarning,0824.2,5.00,000.00,025.8,025.2,000.0,034.1,027.6,017.8,0000.0,0008.95,0002.94,0001.64
2024-05-02 04:30:00,SystemResetWarning,0824.2,5.00,000.00,025.8,025.2,000.0,034.2,027.7,017.9,0000.0,0008.62,0002.92,0001.62
2024-05-02 04:31:00,SystemResetWarning,0824.2,5.01,000.00,025.8,025.2,000.0,034.2,027.7,017.9,0000.0,0008.21,0002.89,0001.62
2024-05-02 04:32:00,SystemResetWarning,0824.1,5.00,000.00,025.8,025.2,000.0,034.2,027.7,018.0,0000.0,0007.61,0002.92,0001.63
2024-05-02 04:33:00,SystemResetWarning,0824.2,5.00,000.00,025.8,025.2,000.0,034.2,027.6,017.9,0000.0,0007.98,0002.99,0001.64
2024-05-02 04:34:00,SystemResetWarning,0824.2,4.98,000.00,025.8,025.2,000.0,034.2,027.6,018.0,0000.0,0008.54,0003.05,0001.66
2024-05-02 04:35:00,SystemResetWarning,0824.2,5.00,000.00,025.9,025.2,000.0,034.2,027.6,018.0,0000.0,0009.17,0003.12,0001.67
2024-05-02 04:36:00,SystemResetWarning,0824.2,5.01,000.00,025.9,025.2,000.0,034.2,027.6,018.0,0000.0,0009.43,0003.14,0001.68
2024-05-02 04:37:00,SystemResetWarning,0824.2,5.00,000.00,025.9,025.2,000.0,034.2,027.6,018.0,0000.0,0009.51,0003.15,0001.69
2024-05-02 04:38:00,SystemResetWarning,0824.2,5.00,000.00,025.9,025.2,000.0,034.2,027.6,018.1,0000.0,0009.53,0003.14,0001.69
2024-05-02 04:39:00,SystemResetWarning,0824.2,4.98,000.00,025.9,025.2,000.0,034.2,027.6,018.1,0000.0,0008.86,0003.16,0001.71
2024-05-02 04:40:00,SystemResetWarning,0824.2,4.99,000.00,025.9,025.2,000.0,034.2,027.6,018.2,0000.0,0008.40,0003.14,0001.71
2024-05-02 04:41:00,SystemResetWarning,0824.2,5.01,000.00,025.9,025.2,000.0,034.2,027.7,018.1,0000.0,0008.71,0003.14,0001.71
2024-05-02 04:42:00,SystemResetWarning,0824.3,5.00,000.00,025.9,025.2,000.0,034.2,027.7,018.0,0000.0,0009.46,0003.14,0001.71
2024-05-02 04:43:00,SystemResetWarning,0824.3,4.99,000.00,025.9,025.2,000.0,034.3,027.7,018.1,0000.0,0009.55,0003.12,0001.69
2024-05-02 04:44:00,SystemResetWarning,0824.3,5.00,000.00,025.9,025.3,000.0,034.3,027.7,018.1,0000.0,0009.15,0003.10,0001.69
2024-05-02 04:45:00,SystemResetWarning,0824.3,4.99,000.00,025.9,025.3,000.0,034.2,027.7,018.1,0000.0,0008.47,0003.00,0001.68
2024-05-02 04:46:00,SystemResetWarning,0824.2,5.00,000.00,025.9,025.3,000.0,034.3,027.7,018.0,0000.0,0008.32,0002.92,0001.67
2024-05-02 04:47:00,SystemResetWarning,0824.1,5.00,000.00,026.0,025.3,000.0,034.3,027.7,018.0,0000.0,0008.35,0002.89,0001.66
2024-05-02 04:48:00,SystemResetWarning,0824.1,5.01,000.00,026.0,025.3,000.0,034.3,027.7,018.1,0000.0,0008.87,0002.91,0001.64
2024-05-02 04:49:00,SystemResetWarning,0824.2,5.01,000.00,026.0,025.3,000.0,034.3,027.7,018.0,0000.0,0009.46,0002.94,0001.65
2024-05-02 04:50:00,SystemResetWarning,0824.1,5.00,000.00,026.0,025.3,000.0,034.3,027.8,018.0,0000.0,0009.36,0002.91,0001.65
2024-05-02 04:51:00,SystemResetWarning,0824.1,5.00,000.00,026.0,025.3,000.0,034.3,027.8,018.0,0000.0,0009.68,0002.96,0001.67
2024-05-02 04:52:00,SystemResetWarning,0824.1,5.00,000.00,026.0,025.3,000.0,034.3,027.8,017.9,0000.0,0009.67,0003.01,0001.68
2024-05-02 04:53:00,SystemResetWarning,0824.2,5.00,000.00,026.0,025.3,000.0,034.3,027.8,017.9,0000.0,0008.76,0002.98,0001.69
2024-05-02 04:54:00,SystemResetWarning,0824.0,5.00,000.00,026.0,025.3,000.0,034.4,027.8,017.9,0000.0,0008.59,0002.98,0001.71
2024-05-02 04:55:00,SystemResetWarning,0824.0,5.00,000.00,026.0,025.3,000.0,034.4,027.8,018.0,0000.0,0008.56,0002.94,0001.70
2024-05-02 04:56:00,SystemResetWarning,0824.0,5.00,000.00,026.0,025.3,000.0,034.4,027.8,017.9,0000.0,0009.04,0002.90,0001.68
2024-05-02 04:57:00,SystemResetWarning,0824.0,5.00,000.00,026.0,025.3,000.0,034.4,027.8,017.9,0000.0,0009.46,0002.97,0001.69
2024-05-02 04:58:00,SystemResetWarning,0824.0,5.00,000.00,026.0,025.3,000.0,034.4,027.8,018.0,0000.0,0009.38,0003.00,0001.69
2024-05-02 04:59:00,SystemResetWarning,0824.0,4.99,000.00,026.0,025.3,000.0,034.4,027.8,018.0,0000.0,0009.32,0003.01,0001.71
